22:38
Airports
History
Links
Donate
Help keep this website running!
PayPal
Bitcoin
Information on this page is community maintained and may be outdated or inaccurate and is intended for reference only or PC simulator navigating.
Always use approved charts for navigating.
5C7
Chain Lakes Airpark
Chain Lakes Airpark (5C7)
Cedar Rapids, Iowa, United States (52411)
4
Lat/Lng:42° 3' 4.99" N / 91° 43' 0.65" W
42.051386 / -91.716846
Elevation:825'ft 251mMSL
ID / ICAO:5C7
Runways:1
Longest:(36-18) 917.3m 3,010ft Grass
Distance To
Airport ID:
Nearby VORs <50NM
Nearby NDBs
Nearby WeatherUpdated 06-28-17 21:52 GMT
Nearby weather at KCID, The Eastern Iowa located 11.5 nautical miles from 5C7
Altimeter: 29.68
Visibility: 10.0 statute miles
Wind: 15 knots (200°)
Temp: 27°c 81°f
Humidity: 74.2%

METAR: KCID 282152Z 20015G24KT 10SM SCT043 BKN075 27/22 A2968 RMK AO2 SLP045 T02720217

(Powered by phpweather)
Runway 36 / 18
Dimensions:917.3 x 30.5m 3010' x 100'ft
Surface:Grass
Runway 36 [A]Runway 18 [B]
Heading:002°TH 182°TH
Lat:
Lng:
42° 2' 50.19"N
91° 43' 1.34"W
42° 3' 19.79"N
91° 42' 59.95"W
User Notes and Comments
Google Map
Nearby Airports
4 Sherman 1.4 NM
IA28 ENE 70°
(R) Mc Bride Field 4.3 NM
7IA3 ENE 78°
4 Petes Patch 8.9 NM
IA20 NE 49°
4 Marion 9.6 NM
C17 E 98°
4 Reynolds 10.0 NM
IA04 NNE 13°
(C) The Eastern Iowa 11.5 NM
KCID (WX) S 178°
(R) Hannen 12.3 NM
0IA8 N 351°
VFR Chart
Flight Planning at SkyVector.com